Regional Weather Roundup
Issued by NWS

Home | Current Version | Previous Version | Text Only | Print | Product List | Glossary On
Versions: 1 2 3 4 5 6 7 8 9 10 11 12 13 14 15 16 17 18 19 20 21 22 23 24 25 26 27 28 29 30 31 32 33 34 35 36 37 38 39 40 41 42 43 44 45 46 47 48 49 50
000
ASUS43 KDTX 111010
RWRMI
MICHIGAN HOURLY REGIONAL WEATHER ROUNDUP
NATIONAL WEATHER SERVICE DETROIT/PONTIAC MI
500 AM EST MON DEC 11 2017

NOTE: "FAIR" INDICATES FEW OR NO CLOUDS BELOW 12,000 FEET WITH NO
SIGNIFICANT WEATHER AND/OR OBSTRUCTION TO VISIBILITY.

MIZ047>049-052>055-059>063-066>070-074>076-081>083-111100-
SOUTHEAST LOWER MICHIGAN

CITY           SKY/WX    TMP DP  RH WIND       PRES   REMARKS
ADRIAN         CLOUDY    24  20  84 CALM      30.04S
ALMA           CLOUDY    20  14  77 CALM      30.02F
ANN ARBOR      CLOUDY    24  19  81 W6        30.03R WCI  17
BAD AXE        CLOUDY    17   9  70 N7        30.02F WCI   7
CARO           CLOUDY    18  11  74 N5        30.03F WCI  11
DETROIT CITY   MOCLDY    24  16  71 N6        30.05R WCI  17
DETROIT        CLOUDY    26  17  68 N8        30.05R WCI  18
FLINT          CLOUDY    20  13  74 N8        30.04S WCI  10
GROSSE ILE     MOCLDY    25  19  77 NW5       30.04R WCI  19
HILLSDALE      CLOUDY    27  21  80 CALM      29.99F
HOWELL         CLOUDY    22  18  85 CALM      30.02S

CITY           SKY/WX    TMP DP  RH WIND       PRES   REMARKS
JACKSON        CLOUDY    25  19  78 NE3       30.00F
LAMBERTVILLE   CLOUDY    21  19  92 CALM      30.05S
LANSING        CLOUDY    22  15  75 E7        30.02F WCI  13
LAPEER         CLOUDY    18  10  73 CALM      30.03F
MASON          CLOUDY    24  16  71 E6        30.01F WCI  17
MONROE         CLOUDY    22  19  88 SW3       30.05R
MT. CLEMENS    MOCLDY    22  16  79 W6        30.03R WCI  14
PONTIAC        CLOUDY    21  15  78 N6        30.00S WCI  13
PORT HOPE        N/A     20  10  65 NW10      30.00F WCI   9
PORT HURON     CLOUDY    19  10  68 NW8       30.04R WCI   9
TRI CITIES     CLOUDY    14  13  95 SE3       30.03F
MIDLAND        CLOUDY    19  15  86 CALM      30.02F
TROY           CLOUDY    24  17  72 NW3       30.05S
SAGINAW HB     CLOUDY    14  12  92 CALM      30.03F
$$
MIZ043>046-050>051-056>058-064>065-071>073-077>080-111100-
SOUTHWEST LOWER MICHIGAN

CITY           SKY/WX    TMP DP  RH WIND       PRES   REMARKS
BATTLE CREEK   CLOUDY    27  21  78 SE3       29.99F
BENTON HARBOR  CLOUDY    30  20  66 SW3       29.99F
BIG RAPIDS     CLOUDY    20  15  80 CALM      29.97F
COLDWATER      CLOUDY    27  23  86 S3        30.00F
FREMONT        CLOUDY    22  17  81 CALM      29.99R
HOLLAND        CLOUDY    26  19  74 E7        29.99F WCI  18
GRAND RAPIDS   CLOUDY    25  22  88 E7        29.99F WCI  17
IONIA          CLOUDY    23  17  76 E5        29.99F WCI  17
KALAMAZOO      CLOUDY    28  22  78 E5        29.98F WCI  23
LUDINGTON      CLOUDY    22  16  76 SE5       29.97F WCI  16
MARSHALL       CLOUDY    24  22  93 CALM      29.99F
MOUNT PLEASANT CLOUDY    15  10  83 CALM      30.00F
MUSKEGON       CLOUDY    25  17  72 E5        30.00F WCI  19
SOUTH HAVEN    CLOUDY    31  21  65 CALM      29.98F
$$
MIZ016>042-111100-
NORTHERN LOWER MICHIGAN

CITY           SKY/WX    TMP DP  RH WIND       PRES   REMARKS
ALPENA         CLOUDY    17   8  67 W6        29.99F WCI   9
BEAVER ISLAND  CLOUDY    20  12  68 CALM      29.96F
BELLAIRE       FLURRIES  18  15  88 CALM      29.98F
CADILLAC       CLOUDY    16  12  86 CALM      29.93F
CHARLEVOIX     FLURRIES  20  15  78 S6        29.99F WCI  13
FRANKFORT      CLOUDY    23  14  68 CALM      29.98F
GAYLORD        FLURRIES  14   8  77 SE5       29.91F WCI   6
GRAYLING       CLOUDY    15   9  76 CALM      29.96F
HARBOR SPRINGS CLOUDY    18   9  68 CALM      29.96F
HOUGHTON LAKE  CLOUDY    17  10  74 SW3       29.97F
MANISTEE       CLOUDY    21  13  71 E6        29.97F WCI  13
OSCODA         CLOUDY    13   5  70 NE3       30.00F
PELLSTON       CLOUDY    16  10  77 E6        29.97F WCI   7
ROGERS CITY    LGT SNOW  17  13  85 CALM      29.99F
TRAVERSE CITY  CLOUDY    22  12  65 SW3       29.97F
$$
MIZ007>008-015-111100-
EASTERN UPPER MICHIGAN

CITY           SKY/WX    TMP DP  RH WIND       PRES   REMARKS
KINROSS        FLURRIES   5   1  83 SE8       29.96F WCI  -8
MACKINAC ISLAN CLOUDY    17   9  68 CALM      29.95F
NEWBERRY       CLOUDY    13  12  97 S5        29.93S WCI   5
S. S. MARIE    CLOUDY     5  -3  69 E5        29.97F WCI  -4
MUNISING         N/A     15   9  76 SW3       29.93F
$$
MIZ004>006-011>014-085-111100-
CENTRAL UPPER MICHIGAN

CITY           SKY/WX    TMP DP  RH WIND       PRES   REMARKS
MANISTIQUE     CLOUDY    14   3  60 CALM      29.95F
ESCANABA       PTCLDY     7   4  87 CALM      29.96F
MENOMINEE      CLOUDY    16  10  77 CALM      29.96F
SAWYER-GWINN   CLOUDY    10   5  82 S9        29.87F WCI  -4
$$
MIZ001>003-009>011-084-111100-
WESTERN UPPER MICHIGAN

CITY           SKY/WX    TMP DP  RH WIND       PRES   REMARKS
IRON MOUNTAIN  CLOUDY    13   7  77 SE6       29.87F WCI   4
HOUGHTON       CLOUDY    14   7  73 S8        29.84F WCI   3
COPPER HARBOR    N/A     15   8  73 SW5       29.88F WCI   8
IRONWOOD       FLURRIES  16  11  80 S12       29.79F WCI   3
$$

ABBREVIATIONS USED IN REMARKS
   TC - TEMPERATURE IN CELSIUS
  WCI - WIND CHILL INDEX
   HX - HEAT INDEX
  VSB - VISIBILITY




USA.gov is the U.S. government's official web portal to all federal, state and local government web resources and services.